Location: Brighton Point
(40.6144°N, 111.7933°W)
Time: 18:22:55
(UTC+00:00)

ISS - Pass Details

Date: 08 March 2021
Orbit: 418 x 421 km, 51.6° (Epoch: 21 April)

Event Time Altitude Azimuth Distance (km) Brightness Sun altitude
Exits shadow 12:26:14 14° 331° (NNW) 1,268 -1.5 -16.6°
Maximum altitude 12:28:29 28° 25° (NNE) 829 -1.9 -16.2°
Drops below altitude 10° 12:31:26 10° 86° (E) 1,495 0.4 -15.6°
Sets 12:33:36 0° 99° (E) 2,310 1.5 -15.2°
